TimeEST,TemperatureF,Dew PointF,Humidity,Sea Level PressureIn,VisibilityMPH,Wind Direction,Wind SpeedMPH,Gust SpeedMPH,PrecipitationIn,Events,Conditions,WindDirDegrees,DateUTC
12:54 AM,28.9,23.0,78,30.26,10.0,NNW,18.4,25.3,N/A,,Clear,340,2013-03-08 05:54:00
1:54 AM,28.9,23.0,78,30.27,10.0,North,15.0,20.7,N/A,,Clear,350,2013-03-08 06:54:00
2:54 AM,28.0,21.9,78,30.25,10.0,NNW,17.3,-,N/A,,Clear,340,2013-03-08 07:54:00
3:54 AM,28.0,21.9,78,30.25,10.0,NNW,13.8,-,N/A,,Clear,340,2013-03-08 08:54:00
4:54 AM,28.0,21.9,78,30.26,10.0,North,13.8,-,N/A,,Clear,350,2013-03-08 09:54:00
5:54 AM,27.0,21.9,81,30.29,10.0,NNW,15.0,-,N/A,,Clear,340,2013-03-08 10:54:00
6:54 AM,27.0,21.9,81,30.32,10.0,NNW,10.4,-,N/A,,Clear,340,2013-03-08 11:54:00
7:54 AM,28.9,21.9,75,30.34,10.0,North,9.2,-,N/A,,Clear,350,2013-03-08 12:54:00
8:54 AM,32.0,21.9,66,30.34,10.0,North,8.1,16.1,N/A,,Clear,350,2013-03-08 13:54:00
9:54 AM,37.0,21.0,52,30.34,10.0,North,13.8,-,N/A,,Clear,350,2013-03-08 14:54:00
10:54 AM,39.0,19.0,45,30.33,10.0,North,16.1,20.7,N/A,,Clear,360,2013-03-08 15:54:00
11:54 AM,43.0,15.1,32,30.32,10.0,North,15.0,24.2,N/A,,Clear,350,2013-03-08 16:54:00
12:54 PM,46.0,16.0,30,30.30,10.0,North,13.8,21.9,N/A,,Clear,350,2013-03-08 17:54:00
1:54 PM,48.0,17.1,29,30.27,10.0,North,11.5,20.7,N/A,,Clear,350,2013-03-08 18:54:00
2:54 PM,51.1,16.0,25,30.26,10.0,North,12.7,20.7,N/A,,Clear,10,2013-03-08 19:54:00
3:54 PM,50.0,12.9,23,30.24,10.0,North,13.8,25.3,N/A,,Clear,10,2013-03-08 20:54:00
4:54 PM,48.9,18.0,29,30.25,10.0,North,12.7,20.7,N/A,,Clear,360,2013-03-08 21:54:00
5:54 PM,46.9,18.0,32,30.26,10.0,NNW,18.4,-,N/A,,Clear,340,2013-03-08 22:54:00
6:54 PM,44.1,19.9,38,30.27,10.0,NNW,16.1,23.0,N/A,,Clear,340,2013-03-08 23:54:00
7:54 PM,41.0,21.9,47,30.30,10.0,North,5.8,-,N/A,,Clear,350,2013-03-09 00:54:00
8:54 PM,37.9,23.0,55,30.33,10.0,North,5.8,-,N/A,,Clear,350,2013-03-09 01:54:00
9:54 PM,37.0,24.1,59,30.32,10.0,NNW,12.7,-,N/A,,Clear,340,2013-03-09 02:54:00
10:54 PM,37.0,24.1,59,30.30,10.0,Calm,Calm,-,N/A,,Clear,0,2013-03-09 03:54:00
11:54 PM,34.0,23.0,64,30.30,10.0,Calm,Calm,-,N/A,,Clear,0,2013-03-09 04:54:00